Location: Bremen
(53.0793°N, 8.8017°E)
Time: 03:25:33
(UTC+01:00)

Vanguard 1 Rocket - Pass Details

Date: 04 December 2021
Orbit: 651 x 4224 km, 34.3° (Epoch: 20 January)

Event Time Altitude Azimuth Distance (km) Brightness Sun altitude
Rises 09:33:52 0° 273° (W) 7,042 11.5 6.9°
Reaches altitude 10° 09:40:15 10° 259° (W) 6,551 11.5 7.5°
Maximum altitude 09:53:48 20° 222° (SW) 6,406 12.0 8.6°
Drops below altitude 10° 10:09:08 10° 185° (S) 7,376 13.1 9.8°
Sets 10:17:23 0° 171° (S) 8,159 13.8 10.4°
